This is the latest recevied weather packets stored in our database for station/object WK1F-2. If no packets are shown the sender has not sent any weather packets the latest 1 day(s).
| Time | Temp. | Humidity | Pressure | Rain* | Wind** | Luminosity | Snow |
|---|---|---|---|---|---|---|---|
| 1836274817 | 23.33° C | 88% | 1016.7 hPa | 0 mm | 0 m/s | - | - |
| 1836274518 | 23.33° C | 87% | 1016.8 hPa | 0 mm | 0 m/s | - | - |
| 1836274368 | 23.33° C | 88% | 1016.7 hPa | 0 mm | 0 m/s | - | - |
| 1836274217 | 23.33° C | 87% | 1016.8 hPa | 0 mm | 0 m/s | - | - |
| 1836273917 | 23.89° C | 87% | 1016.7 hPa | 0 mm | 0.45 m/s, 80° | - | - |
| 1778062049 | 16.67° C | 89% | 1015.6 hPa | 0 mm | 0.89 m/s, 184° | - | - |
| 1778061749 | 16.67° C | 89% | 1015.6 hPa | 0 mm | 0.89 m/s, 196° | - | - |
| 1778061449 | 16.67° C | 89% | 1015.5 hPa | 0 mm | 1.34 m/s, 203° | - | - |
| 1778061149 | 16.67° C | 88% | 1015.6 hPa | 0 mm | 1.34 m/s, 211° | - | - |
| 1778060849 | 16.67° C | 88% | 1015.5 hPa | 0 mm | 1.34 m/s, 197° | - | - |
| 1778060549 | 16.67° C | 88% | 1015.5 hPa | 0 mm | 0.89 m/s, 204° | - | - |
| 1778060249 | 16.67° C | 88% | 1015.6 hPa | 0 mm | 1.34 m/s, 211° | - | - |
| 1778059949 | 16.67° C | 88% | 1015.4 hPa | 0 mm | 1.34 m/s, 217° | - | - |
| 1778059649 | 16.67° C | 88% | 1015.4 hPa | 0 mm | 1.79 m/s, 218° | - | - |
| 1778059349 | 16.67° C | 87% | 1015.3 hPa | 0 mm | 1.79 m/s, 192° | - | - |
| 1778059049 | 16.67° C | 87% | 1015.3 hPa | 0 mm | 2.24 m/s, 197° | - | - |
| 1778058749 | 16.67° C | 87% | 1015.2 hPa | 0 mm | 1.34 m/s, 180° | - | - |
| 1778058449 | 16.67° C | 87% | 1015.2 hPa | 0 mm | 1.79 m/s, 177° | - | - |
| 1778058148 | 16.67° C | 87% | 1015.1 hPa | 0 mm | 1.34 m/s, 176° | - | - |
| 1778057849 | 17.22° C | 86% | 1015.3 hPa | 0 mm | 1.79 m/s, 190° | - | - |
| 1778057548 | 17.22° C | 86% | 1015.3 hPa | 0 mm | 1.79 m/s, 190° | - | - |
| 1778057248 | 17.22° C | 86% | 1015.3 hPa | 0 mm | 1.34 m/s, 190° | - | - |
| 1778056948 | 17.22° C | 86% | 1015.4 hPa | 0 mm | 1.34 m/s, 203° | - | - |
| 1778056648 | 17.22° C | 85% | 1015.4 hPa | 0 mm | 1.34 m/s, 197° | - | - |
| 1778056348 | 17.22° C | 85% | 1015.4 hPa | 0 mm | 1.34 m/s, 224° | - | - |
* Rain latest hour (hover to see other rain measurements)
** Current wind speed in m/s (hover to see current wind gust speed)